Orbital Elements at Epoch 2459000.5 (2020-May-31.0) TDB
Reference: JPL 16 (heliocentric ecliptic J2000)
Element | Value | Uncertainty (1-sigma) | Units |
e | .1302492590779489 | 4.8978e-08 | |
a | 2.1957584094356 | 1.0474e-08 | au |
q | 1.909762503492437 | 1.0694e-07 | au |
i | 2.643428717572662 | 4.936e-06 | deg |
node | 332.6875494813489 | 0.00015287 | deg |
peri | 9.454036920336666 | 0.00015564 | deg |
M | 120.9344627351838 | 3.1327e-05 | deg |
tp | 2458601.270304306493 (2019-Apr-27.77030431) | 0.00010263 | TDB |
period | 1188.434522294768 3.25 | 8.5034e-06 2.328e-08 | d yr |
n | .3029195073405221 | 2.1674e-09 | deg/d |
Q | 2.481754315378763 | 1.1838e-08 | au |
|
| | Orbit Determination Parameters
Additional Information
|